Tracking 29932 objects as of 3-Dec-2024
HD Live streaming from Space Station
objects crossing your sky now

STARLINK-30534

Track STARLINK-30534 now!
10-day predictions
STARLINK-30534 is classified as:


NORAD ID: 57992
Int'l Code: 2023-153B
Perigee: 565.1 km
Apogee: 567.2 km
Inclination: 43.0 °
Period: 95.8 minutes
Semi major axis: 6937 km
RCS: Unknown
Launch date: October 5, 2023
Source: United States (US)
Launch site: AIR FORCE EASTERN TEST RANGE (AFETR)
Your satellite tracking list
Your tracking list is empty




NASA's NSSDC Master Catalog

Two Line Element Set (TLE):
1 57992U 23153B   24338.28707163  .00001407  00000-0  11918-3 0  9995
2 57992  43.0041  56.3757 0001522 264.0679  95.9990 15.02544449 65362
Source of the keplerian elements: AFSPC